Wind_Speed
6 5 5 4 4 4 3 3 3 4 5 5 5 5 6 7 7 8 9 10 10 11 12 12 13 13 14 14 14 16 18 18 18 17 16 15 14 13 11 10 8 7 6
5 5 4 4 3 3 3 3 3 3 4 4 4 5 5 6 7 7 8 9 9 10 11 12 12 13 14 14 15 15 17 19 20 19 18 18 16 15 14 13 11 10 9
4 4 3 2 2 2 2 2 3 3 3 3 3 4 5 5 6 7 7 7 8 9 10 11 12 12 13 14 15 15 16 18 19 20 20 20 19 18 17 16 15 13 11
3 3 2 2 1 1 1 2 2 3 3 3 3 4 4 5 5 6 6 7 7 8 9 10 10 11 12 13 13 14 14 17 18 20 21 21 21 21 20 19 18 16 15
3 2 2 1 1 1 1 2 2 2 3 3 3 4 4 4 5 5 6 6 7 7 8 9 9 10 11 12 13 14 14 16 17 18 20 21 22 23 23 22 20 19 18
3 3 2 2 1 1 1 2 2 3 3 3 3 3 3 4 5 5 6 6 7 7 7 8 9 9 10 10 11 12 13 13 15 17 18 20 22 22 24 24 23 22 21
4 3 3 2 1 1 1 2 3 3 3 4 4 4 4 4 5 5 6 6 7 7 7 7 8 8 9 9 10 11 12 12 13 14 17 19 21 21 23 25 25 25 24
4 4 3 2 1 1 1 2 3 3 4 4 4 4 5 5 6 6 6 6 7 7 8 8 8 9 9 9 10 11 12 12 13 14 14 16 18 21 22 23 25 26 26
5 4 3 2 1 0 1 2 3 3 4 4 5 5 5 6 6 7 7 7 8 8 9 9 9 10 10 11 11 11 12 12 13 14 15 15 16 18 21 23 25 27 27
5 5 4 3 2 1 1 2 2 3 4 4 5 6 6 7 7 8 8 9 9 10 10 10 10 11 11 12 12 12 13 13 14 14 15 15 16 17 19 21 22 25 28
6 5 5 4 3 3 3 4 4 4 5 5 6 7 8 9 9 9 10 10 11 11 12 11 11 12 13 13 14 14 14 15 15 16 16 17 17 17 18 20 21 23 25
7 7 6 5 5 5 6 6 7 7 7 8 9 9 10 11 11 11 12 12 13 13 14 14 14 14 14 14 15 15 16 16 17 17 18 18 19 19 20 20 21 22 24
8 8 7 8 8 8 9 9 10 10 11 11 12 12 13 13 13 14 14 15 15 15 15 16 16 16 16 16 17 17 17 18 18 19 19 20 20 21 21 22 23 23 24
10 9 9 10 10 11 11 12 13 13 14 14 15 15 16 16 16 17 17 18 18 17 17 17 18 19 19 19 19 19 19 19 20 20 21 21 22 22 23 24 24 25 26
11 11 12 12 13 13 14 15 15 16 17 18 18 18 19 19 20 20 20 20 21 20 20 19 19 20 21 21 21 22 22 22 22 22 22 23 24 24 25 25 26 27 27
13 14 14 15 15 16 17 17 18 19 20 20 21 21 22 22 23 23 24 24 24 24 24 23 22 22 22 23 23 24 24 24 25 25 25 25 25 26 26 27 28 29 29
15 16 17 17 18 19 20 20 21 22 23 23 24 24 24 25 25 26 26 27 27 27 27 27 26 25 25 25 25 25 26 26 26 27 27 27 27 27 28 28 29 30 31
18 18 19 20 21 22 22 23 24 24 25 25 26 26 26 27 27 28 28 29 29 30 30 30 30 29 28 28 28 28 28 28 28 28 28 28 28 29 29 29 30 31 32
20 21 22 22 23 24 24 25 26 26 27 27 28 28 29 29 29 30 30 31 32 32 32 32 32 32 32 32 31 31 31 31 30 30 29 30 30 31 30 30 31 31 31
23 24 24 25 25 26 27 27 28 29 29 30 30 31 31 31 32 33 33 34 34 34 34 34 34 35 35 35 34 34 33 33 33 33 32 31 32 32 32 32 32 32 33
25 26 26 27 27 28 29 30 31 31 31 32 32 33 34 34 35 36 36 36 37 37 38 38 38 37 37 38 38 37 36 36 35 35 35 34 34 34 34 34 34 34 34
27 28 28 29 30 30 31 32 33 33 34 34 35 35 36 36 37 38 39 40 40 40 40 41 41 40 40 41 41 40 39 39 37 37 37 36 36 36 36 35 35 36 36
31 31 31 32 32 33 34 35 36 37 37 37 38 39 39 40 41 41 42 43 43 44 44 44 44 43 44 44 44 43 43 42 41 40 41 39 38 38 38 38 37 37 37
35 35 34 35 36 37 37 37 39 39 40 40 41 42 43 43 44 45 46 46 46 47 47 47 47 47 47 47 48 47 46 45 44 43 44 43 41 41 40 40 39 39 39
38 37 37 38 39 39 40 41 41 42 43 43 43 44 45 46 47 48 49 50 49 49 49 50 51 51 50 50 50 50 49 49 47 45 45 46 44 43 43 42 42 41 40
38 38 39 40 40 41 41 42 44 45 45 46 46 47 48 49 49 51 52 52 53 52 53 54 54 54 53 52 52 53 53 52 51 48 47 48 47 46 45 44 44 43 42
Wind_Direction
269 273 274 275 273 270 273 273 270 269 268 270 269 265 264 263 258 258 261 258 255 256 256 259 257 256 255 252 246 241 238 237 237 236 236 236 234 232 230 229 228 225 222
264 265 273 274 273 271 281 281 279 276 273 271 273 274 280 279 277 276 274 270 264 263 262 262 261 260 259 255 252 250 245 241 239 237 237 237 236 234 233 232 232 229 227
259 262 270 279 284 296 308 308 302 296 293 289 284 284 285 286 288 290 285 280 275 272 269 266 265 263 261 260 255 255 254 247 242 239 237 237 237 236 235 234 234 233 231
240 243 249 257 271 311 332 338 330 321 315 305 296 293 294 294 297 302 299 292 287 282 280 277 273 267 267 267 262 260 258 253 247 242 240 238 238 237 236 236 235 234 234
222 226 228 235 251 330 350 357 346 341 335 326 317 312 306 307 311 310 308 306 301 295 291 289 285 280 276 271 269 264 263 260 255 249 244 240 240 239 238 237 236 235 235
220 224 220 213 222 331 345 351 353 353 350 352 349 341 334 327 328 327 323 318 312 306 298 294 291 290 286 280 275 272 271 264 258 254 249 244 244 243 240 239 238 237 237
213 209 195 173 137 51 14 9 13 10 4 3 4 5 3 352 342 335 330 326 321 315 308 302 298 295 296 294 287 279 278 269 265 262 254 248 247 246 244 241 240 238 237
202 196 187 167 144 76 31 24 19 14 10 8 5 0 356 353 351 346 342 335 327 321 316 310 303 299 296 296 294 290 284 277 272 270 264 255 250 250 248 245 241 240 241
198 195 189 177 173 261 7 14 10 6 5 3 359 354 351 348 348 347 345 340 335 329 323 317 309 303 300 295 292 291 290 288 280 275 270 262 256 255 251 249 247 244 243
199 199 201 205 219 257 299 320 336 345 347 346 345 342 341 340 338 337 335 332 330 327 323 317 310 306 305 302 298 295 291 290 287 283 277 270 264 261 257 252 251 248 246
208 211 217 228 245 264 280 293 300 308 315 320 322 323 324 326 327 325 324 323 323 322 321 319 313 306 303 300 297 294 291 289 285 284 281 277 272 268 263 260 257 254 251
224 229 234 245 257 269 280 287 292 295 299 304 308 310 313 315 316 316 317 317 316 315 314 313 311 309 307 302 297 294 292 289 286 283 280 277 273 270 266 263 263 260 256
237 241 247 256 264 272 279 283 288 290 292 296 300 303 305 307 308 309 310 310 309 309 309 308 307 306 305 302 298 295 292 289 286 284 281 278 274 271 268 265 264 262 259
242 249 257 264 270 275 280 284 288 290 292 293 295 297 299 300 300 302 303 304 304 304 304 304 303 302 301 300 297 295 292 290 287 284 282 280 277 273 269 267 265 265 262
251 256 263 269 274 278 282 285 288 289 291 293 294 295 295 296 296 297 298 299 299 299 299 298 298 298 298 297 295 293 291 290 287 285 282 280 278 275 272 269 267 266 264
259 263 268 273 277 281 284 287 288 289 290 291 292 293 293 294 294 295 295 295 295 296 296 296 296 295 294 293 292 290 290 289 288 286 283 280 278 277 275 272 270 269 267
265 269 273 276 279 282 285 287 288 288 289 290 291 292 292 292 293 293 293 293 292 293 293 294 294 294 293 292 290 288 287 287 286 285 283 281 279 278 276 275 273 271 269
270 274 277 279 282 285 286 287 287 288 288 289 290 291 291 291 291 291 291 290 289 290 290 291 291 291 291 291 290 288 287 285 284 284 283 282 280 279 277 276 275 274 271
273 276 279 280 282 284 285 286 286 287 287 288 288 289 289 289 289 289 288 288 288 288 288 288 289 289 289 288 288 287 286 284 283 281 280 280 280 279 278 277 276 275 274
275 277 280 281 282 283 284 284 285 285 285 286 287 287 287 287 286 286 286 286 285 285 286 286 287 287 287 287 286 285 284 283 282 281 279 279 279 279 278 276 275 275 275
276 278 279 280 282 283 283 284 284 284 285 285 285 286 287 286 286 285 286 286 285 284 284 285 285 285 285 285 284 283 282 281 280 279 279 278 277 277 277 277 276 275 275
278 279 281 282 283 284 283 285 285 284 285 284 284 284 285 286 285 285 285 284 285 285 284 284 284 285 285 284 283 282 281 281 280 279 278 277 277 276 275 275 275 275 275
278 278 279 281 282 282 283 283 284 285 285 285 285 285 285 285 284 283 283 283 284 284 284 283 284 284 284 283 282 281 281 280 280 279 279 277 276 276 275 275 274 273 273
278 279 279 281 283 282 282 283 285 286 286 287 286 285 285 285 285 284 283 283 283 284 284 283 283 283 282 281 281 280 280 279 279 279 279 278 277 276 275 275 274 273 273
280 280 280 282 283 283 284 284 284 285 286 287 287 286 286 286 285 283 283 284 284 283 282 281 281 281 280 279 280 280 279 279 278 278 277 277 276 276 275 275 274 273 273
283 283 284 284 285 286 286 287 286 286 286 287 287 287 287 287 286 285 285 284 284 283 282 281 281 280 279 278 278 278 278 278 278 277 276 276 275 274 273 273 273 273 273
Height
5885 5885 5885 5885 5886 5886 5886 5886 5886 5886 5886 5886 5886 5886 5886 5886 5887 5887 5887 5887 5889 5890 5891 5891 5892 5894 5895 5896 5897 5898 5900 5902 5903 5905 5906 5908 5909 5911 5912 5913 5915 5916 5917
5884 5884 5884 5884 5885 5885 5885 5885 5885 5885 5885 5885 5885 5885 5885 5885 5885 5885 5886 5886 5887 5888 5888 5889 5890 5891 5892 5893 5894 5895 5897 5898 5900 5902 5904 5905 5907 5908 5910 5912 5913 5914 5915
5883 5883 5883 5884 5884 5884 5884 5884 5884 5884 5884 5884 5884 5884 5884 5884 5884 5884 5884 5885 5885 5886 5887 5887 5888 5888 5889 5890 5891 5892 5893 5895 5896 5898 5900 5902 5904 5905 5907 5909 5911 5912 5913
5882 5882 5883 5883 5883 5883 5883 5884 5884 5884 5883 5883 5883 5883 5883 5883 5883 5883 5883 5883 5884 5884 5884 5885 5885 5886 5887 5887 5888 5889 5890 5891 5892 5894 5896 5898 5900 5902 5904 5906 5908 5910 5911
5881 5882 5882 5882 5883 5883 5883 5883 5883 5883 5883 5883 5883 5883 5882 5882 5882 5882 5882 5882 5882 5882 5883 5883 5883 5884 5884 5885 5886 5886 5887 5888 5889 5890 5892 5894 5896 5898 5900 5902 5904 5906 5908
5880 5881 5882 5882 5882 5883 5883 5883 5883 5883 5882 5882 5882 5882 5882 5881 5881 5881 5881 5881 5881 5881 5881 5881 5881 5882 5882 5882 5883 5883 5884 5885 5885 5887 5888 5890 5892 5893 5895 5898 5900 5903 5905
5880 5881 5881 5882 5882 5883 5883 5883 5882 5882 5882 5882 5882 5882 5881 5881 5881 5880 5880 5880 5880 5879 5879 5879 5879 5879 5880 5880 5880 5881 5881 5881 5882 5883 5884 5886 5887 5889 5891 5893 5896 5898 5900
5879 5880 5881 5881 5882 5882 5882 5882 5882 5882 5882 5882 5881 5881 5881 5881 5880 5880 5879 5879 5878 5878 5878 5878 5877 5877 5878 5878 5878 5878 5878 5878 5879 5880 5881 5882 5883 5885 5887 5888 5890 5893 5896
5878 5879 5880 5881 5882 5882 5882 5882 5882 5882 5882 5881 5881 5881 5881 5880 5879 5879 5878 5878 5877 5877 5876 5876 5876 5875 5875 5876 5875 5876 5876 5876 5876 5877 5877 5878 5879 5881 5882 5884 5886 5888 5890
5878 5879 5880 5880 5881 5881 5882 5882 5882 5881 5881 5881 5880 5880 5880 5879 5878 5878 5877 5876 5876 5875 5875 5874 5874 5873 5873 5873 5873 5873 5873 5873 5873 5873 5874 5875 5875 5876 5877 5879 5881 5882 5884
5877 5878 5879 5879 5880 5880 5881 5881 5881 5881 5880 5880 5880 5879 5878 5877 5877 5876 5876 5875 5874 5873 5873 5872 5871 5871 5871 5871 5870 5870 5870 5870 5870 5870 5870 5871 5871 5872 5873 5874 5876 5877 5879
5876 5876 5877 5878 5879 5879 5879 5880 5879 5879 5879 5879 5878 5877 5877 5876 5875 5874 5874 5873 5872 5871 5870 5869 5869 5868 5868 5867 5866 5866 5866 5866 5866 5866 5866 5866 5867 5868 5868 5869 5870 5871 5873
5874 5875 5876 5876 5877 5877 5878 5878 5877 5877 5877 5877 5876 5875 5874 5874 5873 5872 5871 5870 5869 5869 5867 5866 5865 5864 5864 5863 5862 5862 5862 5861 5861 5861 5861 5861 5862 5862 5863 5864 5865 5866 5867
5872 5873 5873 5874 5875 5875 5875 5875 5875 5875 5874 5874 5873 5872 5872 5871 5870 5869 5868 5867 5866 5865 5864 5863 5862 5861 5860 5859 5858 5858 5857 5857 5856 5856 5856 5856 5856 5856 5857 5858 5859 5860 5861
5869 5870 5871 5871 5872 5872 5872 5872 5871 5871 5871 5870 5869 5869 5868 5867 5866 5865 5864 5863 5862 5861 5860 5859 5858 5857 5855 5854 5854 5853 5852 5851 5851 5850 5850 5850 5850 5850 5850 5851 5852 5853 5853
5866 5867 5867 5868 5868 5868 5868 5868 5867 5867 5866 5866 5865 5864 5863 5862 5861 5860 5859 5858 5857 5856 5854 5854 5853 5852 5850 5849 5848 5847 5846 5845 5845 5844 5844 5843 5843 5843 5843 5844 5844 5845 5846
5862 5863 5863 5863 5864 5863 5863 5863 5862 5862 5861 5860 5859 5858 5857 5856 5855 5854 5853 5852 5851 5849 5848 5847 5846 5845 5844 5843 5842 5841 5840 5839 5838 5837 5837 5836 5836 5836 5836 5836 5836 5836 5837
5858 5858 5858 5858 5858 5858 5858 5857 5856 5856 5855 5854 5853 5852 5851 5850 5849 5847 5846 5845 5844 5843 5842 5840 5839 5838 5837 5836 5835 5833 5833 5832 5831 5830 5829 5829 5828 5828 5828 5828 5828 5828 5828
5853 5853 5853 5853 5852 5852 5851 5850 5850 5849 5848 5847 5846 5845 5844 5842 5841 5840 5839 5837 5836 5835 5834 5833 5831 5830 5829 5828 5827 5826 5825 5824 5823 5822 5821 5820 5820 5819 5819 5819 5819 5819 5819
5847 5847 5846 5846 5845 5845 5844 5843 5842 5841 5840 5839 5838 5837 5836 5834 5833 5831 5830 5829 5827 5826 5825 5824 5823 5821 5820 5819 5818 5817 5816 5815 5814 5813 5812 5812 5811 5810 5810 5809 5809 5809 5809
5840 5839 5839 5838 5837 5837 5836 5835 5834 5833 5832 5831 5830 5828 5827 5825 5824 5822 5821 5819 5818 5817 5815 5814 5813 5812 5810 5809 5808 5807 5806 5805 5804 5803 5802 5802 5802 5801 5800 5799 5799 5799 5799
5832 5831 5831 5830 5829 5828 5827 5826 5825 5823 5822 5822 5820 5819 5817 5815 5814 5812 5810 5808 5807 5806 5805 5803 5802 5801 5800 5798 5796 5795 5794 5794 5794 5793 5792 5792 5791 5790 5790 5789 5789 5788 5788
5823 5823 5822 5821 5820 5819 5817 5816 5814 5813 5812 5811 5810 5808 5806 5804 5802 5801 5799 5797 5795 5794 5793 5791 5790 5789 5787 5785 5784 5783 5782 5781 5781 5780 5779 5780 5779 5779 5778 5778 5778 5777 5777
5814 5813 5812 5811 5810 5808 5806 5805 5803 5801 5800 5799 5798 5796 5794 5793 5790 5788 5786 5784 5783 5782 5780 5777 5776 5776 5774 5772 5770 5769 5768 5768 5768 5768 5766 5766 5766 5766 5765 5765 5765 5765 5765
5804 5803 5801 5800 5799 5797 5795 5793 5791 5789 5788 5787 5785 5783 5781 5779 5777 5774 5772 5770 5769 5768 5766 5763 5762 5761 5759 5758 5756 5754 5754 5753 5754 5754 5752 5751 5752 5751 5752 5752 5751 5751 5752
5793 5792 5790 5789 5787 5785 5783 5781 5779 5777 5775 5773 5771 5769 5766 5764 5762 5759 5757 5755 5753 5752 5749 5747 5745 5744 5743 5742 5741 5739 5738 5737 5737 5738 5738 5736 5736 5737 5738 5738 5737 5737 5738